QPF
0.01 0.02 0.02 0.02 0.02 0.02 0.01 0.01 0.00 0.00 0.00 0.00 0.00 0.00 0.00 0.00 0.00 0.00 0.01 0.02 0.03 0.05 0.08 0.08 0.09 0.08 0.09 0.07 0.12 0.17 0.16 0.12 0.08 0.05 0.04 0.04 0.03 0.03 0.04 0.05 0.03 0.03 0.03
0.01 0.02 0.03 0.03 0.02 0.02 0.02 0.01 0.00 0.00 0.00 0.00 0.00 0.00 0.00 0.00 0.00 0.00 0.01 0.02 0.03 0.04 0.07 0.09 0.09 0.08 0.09 0.09 0.09 0.11 0.15 0.14 0.11 0.06 0.05 0.04 0.05 0.05 0.05 0.05 0.03 0.03 0.04
0.02 0.02 0.02 0.03 0.03 0.03 0.03 0.02 0.01 0.01 0.01 0.00 0.00 0.00 0.00 0.00 0.00 0.00 0.01 0.01 0.01 0.02 0.06 0.10 0.09 0.07 0.09 0.10 0.08 0.08 0.08 0.08 0.07 0.06 0.05 0.04 0.05 0.05 0.05 0.05 0.04 0.04 0.04
0.03 0.03 0.03 0.02 0.02 0.04 0.04 0.03 0.03 0.02 0.01 0.01 0.01 0.01 0.00 0.00 0.00 0.01 0.01 0.01 0.01 0.01 0.04 0.10 0.09 0.06 0.09 0.10 0.09 0.08 0.08 0.07 0.05 0.05 0.05 0.05 0.06 0.06 0.04 0.04 0.03 0.03 0.04
0.02 0.03 0.03 0.04 0.04 0.04 0.05 0.05 0.04 0.03 0.02 0.01 0.02 0.02 0.02 0.01 0.01 0.01 0.01 0.01 0.01 0.01 0.02 0.04 0.05 0.04 0.05 0.06 0.07 0.08 0.08 0.08 0.07 0.06 0.05 0.06 0.08 0.07 0.04 0.03 0.02 0.02 0.03
0.01 0.02 0.03 0.03 0.04 0.05 0.05 0.06 0.05 0.04 0.03 0.02 0.01 0.02 0.03 0.04 0.03 0.03 0.02 0.02 0.02 0.02 0.02 0.02 0.02 0.02 0.02 0.03 0.04 0.06 0.08 0.09 0.09 0.08 0.06 0.05 0.07 0.08 0.05 0.03 0.02 0.02 0.02
0.00 0.00 0.01 0.02 0.02 0.04 0.04 0.05 0.06 0.04 0.03 0.03 0.02 0.01 0.01 0.02 0.03 0.03 0.04 0.03 0.03 0.02 0.02 0.03 0.03 0.02 0.01 0.03 0.03 0.04 0.06 0.08 0.11 0.11 0.08 0.06 0.05 0.07 0.07 0.05 0.03 0.02 0.02
0.00 0.00 0.00 0.00 0.01 0.02 0.03 0.04 0.05 0.06 0.05 0.03 0.02 0.01 0.01 0.01 0.01 0.02 0.03 0.03 0.04 0.03 0.02 0.02 0.03 0.03 0.02 0.02 0.02 0.03 0.04 0.05 0.10 0.16 0.18 0.12 0.07 0.05 0.06 0.07 0.05 0.03 0.02
0.00 0.00 0.00 0.01 0.01 0.01 0.01 0.03 0.04 0.05 0.06 0.06 0.03 0.02 0.01 0.01 0.01 0.01 0.02 0.03 0.03 0.04 0.03 0.03 0.03 0.03 0.03 0.02 0.02 0.02 0.03 0.04 0.05 0.10 0.18 0.22 0.15 0.08 0.06 0.07 0.06 0.04 0.03
0.00 0.00 0.00 0.00 0.01 0.01 0.01 0.02 0.03 0.04 0.05 0.05 0.06 0.04 0.02 0.01 0.01 0.01 0.02 0.03 0.04 0.04 0.04 0.04 0.04 0.04 0.03 0.03 0.03 0.02 0.02 0.04 0.05 0.06 0.09 0.16 0.22 0.17 0.11 0.08 0.07 0.06 0.05
0.01 0.01 0.00 0.00 0.01 0.01 0.02 0.02 0.02 0.03 0.04 0.05 0.04 0.04 0.04 0.02 0.01 0.01 0.01 0.02 0.02 0.03 0.03 0.03 0.03 0.03 0.03 0.03 0.02 0.02 0.02 0.03 0.05 0.05 0.06 0.08 0.14 0.20 0.16 0.11 0.08 0.07 0.06
0.01 0.01 0.01 0.00 0.01 0.01 0.02 0.02 0.02 0.03 0.03 0.04 0.04 0.04 0.04 0.03 0.02 0.01 0.01 0.01 0.01 0.01 0.02 0.02 0.02 0.03 0.03 0.03 0.03 0.02 0.01 0.03 0.05 0.05 0.05 0.06 0.07 0.10 0.13 0.13 0.09 0.08 0.07
0.01 0.01 0.01 0.01 0.01 0.01 0.01 0.02 0.03 0.03 0.03 0.04 0.05 0.04 0.04 0.04 0.04 0.03 0.02 0.01 0.01 0.01 0.01 0.01 0.02 0.02 0.03 0.04 0.04 0.04 0.02 0.03 0.04 0.06 0.06 0.06 0.05 0.06 0.08 0.10 0.12 0.12 0.10
0.01 0.01 0.01 0.02 0.01 0.01 0.01 0.02 0.02 0.04 0.04 0.04 0.04 0.05 0.05 0.05 0.04 0.04 0.04 0.03 0.02 0.01 0.01 0.01 0.01 0.01 0.02 0.03 0.04 0.04 0.04 0.05 0.05 0.06 0.08 0.07 0.05 0.04 0.04 0.05 0.07 0.11 0.15
0.01 0.01 0.01 0.02 0.02 0.02 0.02 0.02 0.02 0.02 0.04 0.04 0.03 0.04 0.04 0.04 0.04 0.04 0.03 0.03 0.04 0.03 0.02 0.02 0.01 0.01 0.01 0.03 0.04 0.04 0.04 0.05 0.06 0.07 0.07 0.07 0.05 0.03 0.03 0.03 0.03 0.04 0.06
0.01 0.01 0.01 0.01 0.02 0.02 0.02 0.02 0.02 0.02 0.02 0.03 0.03 0.03 0.03 0.03 0.02 0.02 0.03 0.03 0.02 0.03 0.03 0.03 0.02 0.01 0.01 0.02 0.04 0.05 0.05 0.06 0.05 0.06 0.06 0.06 0.05 0.04 0.03 0.02 0.02 0.02 0.02
0.01 0.01 0.01 0.01 0.01 0.02 0.02 0.03 0.02 0.02 0.02 0.02 0.02 0.02 0.02 0.02 0.02 0.02 0.02 0.02 0.02 0.02 0.02 0.02 0.02 0.02 0.02 0.02 0.03 0.05 0.07 0.07 0.05 0.05 0.05 0.05 0.05 0.04 0.04 0.04 0.03 0.03 0.03
0.00 0.01 0.01 0.01 0.01 0.01 0.01 0.02 0.03 0.02 0.02 0.02 0.01 0.02 0.02 0.02 0.02 0.02 0.02 0.01 0.01 0.01 0.02 0.02 0.01 0.01 0.02 0.02 0.02 0.04 0.06 0.08 0.07 0.05 0.05 0.04 0.05 0.05 0.04 0.04 0.04 0.03 0.04
0.00 0.00 0.01 0.01 0.01 0.01 0.01 0.01 0.02 0.02 0.02 0.02 0.01 0.01 0.01 0.01 0.01 0.01 0.01 0.01 0.01 0.01 0.01 0.01 0.01 0.01 0.02 0.03 0.03 0.03 0.05 0.07 0.07 0.06 0.05 0.05 0.04 0.04 0.04 0.04 0.04 0.04 0.04
0.00 0.00 0.00 0.00 0.01 0.01 0.01 0.01 0.01 0.02 0.02 0.02 0.01 0.01 0.01 0.01 0.01 0.01 0.01 0.01 0.01 0.01 0.01 0.01 0.01 0.01 0.02 0.03 0.04 0.05 0.05 0.06 0.07 0.06 0.06 0.06 0.05 0.04 0.04 0.03 0.03 0.03 0.03
0.00 0.00 0.00 0.01 0.01 0.01 0.01 0.01 0.01 0.03 0.03 0.02 0.02 0.01 0.01 0.01 0.01 0.01 0.02 0.01 0.01 0.01 0.01 0.01 0.01 0.01 0.02 0.03 0.04 0.05 0.05 0.05 0.05 0.05 0.06 0.06 0.06 0.06 0.05 0.03 0.03 0.03 0.03
0.00 0.00 0.00 0.01 0.01 0.01 0.01 0.01 0.02 0.03 0.03 0.02 0.01 0.01 0.01 0.01 0.01 0.01 0.01 0.01 0.02 0.02 0.02 0.02 0.02 0.02 0.01 0.02 0.02 0.04 0.05 0.05 0.05 0.05 0.05 0.06 0.06 0.07 0.05 0.04 0.03 0.03 0.02
0.01 0.00 0.01 0.01 0.01 0.01 0.02 0.02 0.02 0.03 0.03 0.02 0.01 0.01 0.01 0.01 0.01 0.01 0.01 0.01 0.01 0.01 0.02 0.02 0.02 0.01 0.01 0.01 0.02 0.03 0.04 0.04 0.04 0.04 0.04 0.05 0.06 0.07 0.06 0.04 0.04 0.03 0.03
0.01 0.01 0.01 0.01 0.01 0.01 0.02 0.02 0.03 0.03 0.02 0.02 0.01 0.01 0.01 0.01 0.01 0.01 0.01 0.01 0.01 0.01 0.01 0.01 0.01 0.01 0.01 0.01 0.02 0.03 0.04 0.04 0.04 0.04 0.05 0.07 0.07 0.07 0.07 0.06 0.06 0.05 0.03
0.01 0.01 0.01 0.01 0.01 0.01 0.02 0.02 0.03 0.03 0.02 0.02 0.02 0.01 0.01 0.01 0.01 0.02 0.02 0.02 0.01 0.01 0.01 0.01 0.01 0.01 0.01 0.01 0.02 0.03 0.04 0.05 0.05 0.05 0.05 0.07 0.07 0.08 0.08 0.07 0.07 0.07 0.05
0.01 0.01 0.01 0.01 0.01 0.01 0.01 0.02 0.03 0.03 0.02 0.02 0.02 0.01 0.02 0.02 0.02 0.03 0.03 0.03 0.03 0.02 0.01 0.01 0.01 0.01 0.01 0.01 0.01 0.02 0.03 0.05 0.05 0.04 0.04 0.07 0.07 0.07 0.09 0.08 0.07 0.08 0.07
MSLP
1026.50 1026.53 1026.49 1026.40 1026.28 1026.17 1026.11 1026.11 1026.20 1026.37 1026.59 1026.82 1027.03 1027.18 1027.24 1027.20 1027.06 1026.84 1026.54 1026.21 1025.87 1025.52 1025.18 1024.87 1024.57 1024.29 1024.04 1023.80 1023.59 1023.40 1023.22 1023.04 1022.85 1022.62 1022.33 1021.99 1021.59 1021.14 1020.66 1020.18 1019.72 1019.32 1018.98
1026.82 1026.86 1026.85 1026.80 1026.73 1026.68 1026.67 1026.72 1026.85 1027.05 1027.29 1027.55 1027.79 1027.99 1028.10 1028.12 1028.05 1027.89 1027.66 1027.38 1027.06 1026.72 1026.37 1026.02 1025.67 1025.32 1024.99 1024.68 1024.41 1024.16 1023.94 1023.73 1023.52 1023.28 1022.99 1022.64 1022.23 1021.75 1021.24 1020.71 1020.21 1019.75 1019.36
1027.07 1027.13 1027.16 1027.17 1027.17 1027.19 1027.24 1027.35 1027.52 1027.74 1028.01 1028.29 1028.55 1028.78 1028.93 1029.01 1029.00 1028.90 1028.72 1028.49 1028.21 1027.88 1027.53 1027.14 1026.75 1026.34 1025.95 1025.57 1025.23 1024.92 1024.65 1024.41 1024.17 1023.92 1023.62 1023.27 1022.84 1022.36 1021.82 1021.27 1020.72 1020.22 1019.77
1027.31 1027.39 1027.47 1027.54 1027.62 1027.71 1027.83 1027.99 1028.19 1028.44 1028.71 1029.00 1029.28 1029.51 1029.70 1029.81 1029.85 1029.80 1029.69 1029.50 1029.25 1028.95 1028.60 1028.22 1027.80 1027.36 1026.91 1026.48 1026.08 1025.72 1025.40 1025.10 1024.83 1024.55 1024.23 1023.87 1023.44 1022.95 1022.41 1021.84 1021.27 1020.73 1020.24
1027.59 1027.70 1027.82 1027.95 1028.09 1028.25 1028.42 1028.62 1028.85 1029.10 1029.37 1029.65 1029.92 1030.16 1030.36 1030.50 1030.57 1030.57 1030.50 1030.36 1030.17 1029.90 1029.58 1029.21 1028.79 1028.34 1027.88 1027.41 1026.97 1026.55 1026.17 1025.83 1025.51 1025.19 1024.85 1024.47 1024.03 1023.54 1023.00 1022.43 1021.85 1021.29 1020.77
1027.93 1028.05 1028.21 1028.39 1028.58 1028.78 1028.98 1029.20 1029.44 1029.68 1029.94 1030.20 1030.45 1030.69 1030.89 1031.05 1031.15 1031.18 1031.16 1031.07 1030.92 1030.71 1030.43 1030.10 1029.72 1029.29 1028.83 1028.35 1027.88 1027.42 1026.99 1026.59 1026.22 1025.85 1025.47 1025.07 1024.63 1024.14 1023.61 1023.05 1022.48 1021.91 1021.36
1028.31 1028.45 1028.63 1028.83 1029.04 1029.26 1029.48 1029.70 1029.93 1030.15 1030.39 1030.63 1030.87 1031.09 1031.30 1031.47 1031.59 1031.66 1031.67 1031.63 1031.53 1031.37 1031.15 1030.88 1030.54 1030.16 1029.72 1029.26 1028.78 1028.30 1027.82 1027.37 1026.94 1026.52 1026.10 1025.68 1025.23 1024.75 1024.24 1023.70 1023.14 1022.58 1022.04
1028.70 1028.86 1029.04 1029.25 1029.47 1029.68 1029.90 1030.10 1030.31 1030.52 1030.73 1030.96 1031.18 1031.41 1031.61 1031.79 1031.93 1032.02 1032.07 1032.06 1032.00 1031.90 1031.74 1031.53 1031.26 1030.93 1030.54 1030.10 1029.63 1029.13 1028.63 1028.13 1027.64 1027.17 1026.72 1026.27 1025.82 1025.35 1024.86 1024.36 1023.84 1023.31 1022.77
1029.06 1029.22 1029.41 1029.61 1029.82 1030.03 1030.22 1030.41 1030.60 1030.79 1031.00 1031.22 1031.45 1031.68 1031.90 1032.09 1032.24 1032.35 1032.41 1032.42 1032.39 1032.32 1032.21 1032.06 1031.84 1031.57 1031.24 1030.84 1030.38 1029.88 1029.35 1028.82 1028.29 1027.78 1027.30 1026.83 1026.38 1025.93 1025.48 1025.01 1024.53 1024.04 1023.54
1029.33 1029.52 1029.71 1029.92 1030.12 1030.31 1030.49 1030.67 1030.85 1031.04 1031.25 1031.48 1031.72 1031.97 1032.20 1032.41 1032.57 1032.68 1032.74 1032.76 1032.74 1032.69 1032.60 1032.48 1032.31 1032.09 1031.79 1031.43 1030.99 1030.50 1029.96 1029.40 1028.85 1028.31 1027.81 1027.33 1026.89 1026.47 1026.05 1025.63 1025.20 1024.75 1024.28
1029.50 1029.72 1029.94 1030.16 1030.36 1030.55 1030.73 1030.91 1031.09 1031.29 1031.51 1031.77 1032.04 1032.31 1032.56 1032.78 1032.95 1033.05 1033.10 1033.10 1033.07 1033.01 1032.92 1032.81 1032.66 1032.47 1032.20 1031.87 1031.45 1030.96 1030.42 1029.86 1029.29 1028.73 1028.22 1027.75 1027.32 1026.93 1026.55 1026.17 1025.79 1025.38 1024.96
1029.56 1029.84 1030.11 1030.36 1030.58 1030.79 1030.97 1031.16 1031.35 1031.57 1031.81 1032.09 1032.39 1032.69 1032.97 1033.20 1033.36 1033.45 1033.48 1033.45 1033.38 1033.29 1033.18 1033.06 1032.91 1032.72 1032.48 1032.15 1031.75 1031.28 1030.74 1030.17 1029.60 1029.05 1028.54 1028.08 1027.67 1027.30 1026.96 1026.62 1026.28 1025.92 1025.53
1029.52 1029.89 1030.22 1030.52 1030.79 1031.02 1031.23 1031.43 1031.63 1031.86 1032.13 1032.43 1032.76 1033.08 1033.37 1033.60 1033.77 1033.84 1033.84 1033.78 1033.67 1033.54 1033.39 1033.24 1033.08 1032.88 1032.63 1032.31 1031.92 1031.46 1030.93 1030.38 1029.81 1029.26 1028.77 1028.32 1027.93 1027.59 1027.28 1026.98 1026.67 1026.34 1025.98
1029.42 1029.88 1030.29 1030.66 1030.98 1031.25 1031.48 1031.69 1031.90 1032.14 1032.42 1032.72 1033.06 1033.39 1033.69 1033.93 1034.09 1034.15 1034.13 1034.03 1033.89 1033.72 1033.53 1033.35 1033.16 1032.94 1032.68 1032.37 1031.99 1031.53 1031.03 1030.48 1029.93 1029.41 1028.92 1028.50 1028.13 1027.81 1027.52 1027.24 1026.96 1026.65 1026.31
1029.27 1029.83 1030.33 1030.77 1031.14 1031.44 1031.69 1031.91 1032.11 1032.34 1032.61 1032.91 1033.23 1033.56 1033.86 1034.10 1034.26 1034.32 1034.29 1034.17 1034.01 1033.81 1033.59 1033.38 1033.16 1032.92 1032.66 1032.34 1031.97 1031.53 1031.05 1030.53 1030.00 1029.49 1029.04 1028.63 1028.28 1027.98 1027.70 1027.44 1027.17 1026.87 1026.55
1029.08 1029.72 1030.30 1030.81 1031.23 1031.56 1031.82 1032.03 1032.22 1032.42 1032.65 1032.93 1033.23 1033.54 1033.84 1034.08 1034.24 1034.31 1034.28 1034.17 1033.99 1033.78 1033.55 1033.32 1033.08 1032.83 1032.56 1032.25 1031.89 1031.47 1031.01 1030.52 1030.02 1029.55 1029.11 1028.72 1028.39 1028.09 1027.83 1027.57 1027.31 1027.02 1026.71
1028.84 1029.56 1030.20 1030.76 1031.22 1031.57 1031.84 1032.03 1032.19 1032.35 1032.54 1032.77 1033.04 1033.33 1033.61 1033.85 1034.03 1034.11 1034.09 1034.00 1033.84 1033.63 1033.40 1033.16 1032.91 1032.66 1032.39 1032.09 1031.74 1031.35 1030.92 1030.47 1030.00 1029.56 1029.14 1028.77 1028.45 1028.16 1027.90 1027.65 1027.39 1027.11 1026.81
1028.54 1029.31 1030.01 1030.61 1031.10 1031.47 1031.73 1031.91 1032.04 1032.16 1032.30 1032.48 1032.71 1032.97 1033.24 1033.48 1033.66 1033.76 1033.77 1033.70 1033.56 1033.36 1033.14 1032.90 1032.66 1032.41 1032.14 1031.85 1031.53 1031.17 1030.77 1030.35 1029.92 1029.50 1029.11 1028.76 1028.44 1028.16 1027.90 1027.65 1027.39 1027.11 1026.83
1028.17 1028.97 1029.71 1030.35 1030.87 1031.26 1031.52 1031.69 1031.80 1031.88 1031.99 1032.13 1032.32 1032.56 1032.80 1033.03 1033.22 1033.33 1033.36 1033.30 1033.18 1033.00 1032.78 1032.54 1032.30 1032.05 1031.80 1031.52 1031.22 1030.89 1030.53 1030.15 1029.76 1029.37 1029.01 1028.66 1028.35 1028.07 1027.80 1027.54 1027.29 1027.02 1026.75
1027.74 1028.56 1029.33 1030.00 1030.55 1030.97 1031.25 1031.42 1031.52 1031.59 1031.67 1031.79 1031.95 1032.15 1032.37 1032.59 1032.76 1032.87 1032.91 1032.86 1032.73 1032.55 1032.33 1032.09 1031.85 1031.60 1031.35 1031.09 1030.81 1030.51 1030.19 1029.85 1029.50 1029.14 1028.80 1028.47 1028.16 1027.87 1027.59 1027.33 1027.07 1026.81 1026.56
1027.28 1028.12 1028.91 1029.62 1030.20 1030.65 1030.96 1031.16 1031.28 1031.35 1031.42 1031.51 1031.65 1031.82 1032.01 1032.20 1032.35 1032.44 1032.45 1032.39 1032.25 1032.05 1031.82 1031.56 1031.31 1031.05 1030.81 1030.56 1030.31 1030.04 1029.76 1029.46 1029.14 1028.82 1028.49 1028.17 1027.86 1027.56 1027.28 1027.00 1026.74 1026.48 1026.24
1026.83 1027.69 1028.51 1029.24 1029.87 1030.36 1030.71 1030.94 1031.08 1031.17 1031.24 1031.33 1031.44 1031.58 1031.73 1031.87 1031.98 1032.03 1032.00 1031.90 1031.73 1031.50 1031.24 1030.97 1030.69 1030.43 1030.19 1029.96 1029.72 1029.49 1029.25 1028.99 1028.71 1028.42 1028.12 1027.81 1027.50 1027.19 1026.89 1026.60 1026.33 1026.07 1025.83
1026.46 1027.33 1028.17 1028.94 1029.60 1030.12 1030.52 1030.79 1030.96 1031.06 1031.14 1031.22 1031.30 1031.40 1031.51 1031.60 1031.65 1031.64 1031.56 1031.41 1031.19 1030.93 1030.64 1030.33 1030.05 1029.78 1029.54 1029.32 1029.12 1028.92 1028.72 1028.50 1028.26 1028.00 1027.72 1027.42 1027.11 1026.80 1026.48 1026.18 1025.89 1025.62 1025.37
1026.23 1027.11 1027.96 1028.74 1029.42 1029.97 1030.38 1030.68 1030.87 1030.99 1031.06 1031.12 1031.18 1031.24 1031.29 1031.32 1031.30 1031.23 1031.10 1030.90 1030.64 1030.34 1030.02 1029.71 1029.41 1029.15 1028.92 1028.72 1028.54 1028.38 1028.21 1028.04 1027.83 1027.61 1027.35 1027.07 1026.77 1026.45 1026.12 1025.80 1025.49 1025.20 1024.95
1026.18 1027.06 1027.90 1028.67 1029.34 1029.88 1030.29 1030.58 1030.77 1030.89 1030.95 1030.98 1031.01 1031.02 1031.02 1030.99 1030.92 1030.80 1030.61 1030.38 1030.09 1029.78 1029.45 1029.13 1028.84 1028.59 1028.38 1028.20 1028.06 1027.93 1027.79 1027.65 1027.49 1027.29 1027.06 1026.80 1026.51 1026.19 1025.86 1025.53 1025.20 1024.89 1024.61
1026.33 1027.18 1027.98 1028.70 1029.32 1029.82 1030.20 1030.46 1030.63 1030.72 1030.75 1030.76 1030.74 1030.71 1030.67 1030.60 1030.48 1030.33 1030.12 1029.87 1029.58 1029.27 1028.96 1028.66 1028.39 1028.16 1027.97 1027.82 1027.70 1027.59 1027.49 1027.37 1027.24 1027.07 1026.86 1026.62 1026.35 1026.04 1025.71 1025.37 1025.03 1024.70 1024.40
Thickness
5581 5583 5584 5585 5587 5588 5590 5591 5593 5594 5596 5597 5599 5600 5601 5602 5604 5605 5607 5610 5612 5614 5616 5618 5620 5621 5622 5623 5623 5624 5625 5625 5626 5627 5628 5629 5630 5631 5632 5632 5633 5634 5634
5572 5573 5575 5576 5578 5579 5581 5582 5584 5585 5586 5588 5589 5590 5592 5593 5594 5596 5597 5599 5601 5603 5606 5608 5610 5611 5613 5614 5615 5616 5617 5617 5618 5619 5620 5621 5622 5623 5624 5625 5626 5627 5627
5562 5564 5565 5566 5568 5570 5572 5573 5575 5576 5577 5578 5579 5580 5582 5583 5584 5586 5587 5589 5590 5592 5595 5597 5599 5601 5603 5605 5606 5608 5609 5609 5610 5611 5612 5613 5614 5615 5616 5617 5618 5619 5620
5552 5554 5555 5556 5558 5560 5562 5563 5564 5565 5566 5567 5568 5569 5571 5572 5574 5575 5576 5578 5579 5581 5583 5585 5587 5589 5591 5594 5596 5598 5599 5601 5602 5603 5604 5605 5606 5607 5608 5609 5610 5611 5613
5541 5543 5544 5545 5547 5549 5550 5552 5552 5553 5554 5556 5557 5559 5560 5561 5563 5564 5565 5566 5567 5569 5571 5572 5575 5577 5579 5582 5585 5587 5589 5590 5592 5594 5595 5596 5597 5598 5599 5601 5602 5603 5605
5530 5531 5533 5534 5536 5537 5538 5540 5541 5541 5542 5544 5547 5547 5548 5550 5551 5551 5552 5554 5555 5557 5558 5560 5563 5564 5567 5569 5572 5575 5577 5580 5582 5583 5585 5586 5587 5588 5590 5592 5593 5594 5596
5518 5519 5521 5523 5524 5525 5526 5527 5528 5529 5530 5531 5533 5534 5536 5538 5539 5539 5540 5541 5543 5544 5546 5548 5549 5551 5553 5556 5559 5562 5565 5568 5570 5572 5574 5575 5577 5578 5579 5581 5583 5584 5586
5506 5507 5508 5510 5511 5512 5513 5514 5516 5516 5516 5517 5518 5519 5522 5525 5526 5528 5528 5529 5530 5531 5532 5534 5536 5538 5540 5543 5545 5548 5551 5554 5557 5560 5562 5564 5565 5566 5568 5570 5571 5574 5576
5494 5495 5496 5497 5498 5499 5500 5501 5502 5503 5502 5503 5503 5504 5506 5509 5510 5514 5515 5515 5516 5517 5519 5521 5523 5524 5526 5529 5531 5534 5537 5540 5543 5546 5549 5551 5552 5554 5556 5558 5559 5561 5564
5481 5482 5483 5484 5485 5486 5487 5488 5489 5489 5490 5489 5489 5489 5489 5491 5492 5497 5500 5501 5502 5503 5504 5506 5508 5510 5512 5514 5516 5519 5522 5525 5529 5531 5534 5537 5539 5541 5544 5545 5547 5550 5552
5468 5469 5470 5471 5472 5473 5473 5474 5475 5475 5475 5475 5474 5474 5474 5475 5475 5478 5483 5485 5487 5489 5490 5492 5493 5495 5497 5499 5501 5504 5507 5510 5513 5516 5519 5522 5525 5528 5530 5533 5535 5537 5540
5455 5456 5457 5458 5458 5459 5460 5460 5461 5462 5461 5461 5460 5460 5460 5460 5460 5461 5464 5468 5470 5474 5476 5478 5479 5481 5482 5484 5485 5488 5491 5494 5497 5500 5504 5507 5510 5513 5516 5519 5522 5525 5528
5442 5443 5444 5445 5445 5446 5447 5447 5448 5448 5448 5447 5447 5446 5446 5445 5445 5446 5446 5450 5453 5458 5461 5463 5464 5465 5467 5468 5470 5473 5475 5478 5481 5485 5489 5492 5496 5499 5501 5504 5508 5511 5515
5431 5431 5432 5432 5432 5433 5434 5434 5435 5435 5434 5434 5434 5433 5432 5431 5431 5431 5431 5431 5436 5441 5445 5448 5449 5450 5451 5452 5454 5457 5460 5463 5466 5470 5474 5477 5480 5484 5487 5490 5493 5497 5500
5419 5419 5419 5419 5420 5420 5421 5421 5421 5421 5421 5421 5420 5420 5418 5417 5416 5416 5416 5416 5417 5423 5431 5434 5434 5435 5435 5437 5439 5442 5446 5449 5452 5456 5459 5462 5465 5469 5472 5475 5478 5482 5486
5407 5407 5407 5407 5407 5408 5408 5408 5408 5408 5408 5408 5407 5406 5405 5404 5403 5402 5402 5402 5402 5404 5411 5418 5417 5419 5420 5422 5425 5428 5431 5435 5438 5441 5444 5447 5450 5453 5456 5459 5463 5466 5470
5395 5395 5395 5395 5395 5395 5395 5395 5395 5395 5394 5394 5394 5393 5392 5391 5390 5389 5388 5388 5388 5389 5394 5401 5402 5403 5405 5408 5411 5414 5417 5421 5424 5427 5430 5433 5436 5439 5442 5444 5447 5450 5454
5384 5384 5383 5383 5383 5383 5382 5382 5382 5382 5381 5381 5381 5380 5379 5378 5377 5376 5375 5374 5374 5375 5378 5383 5387 5388 5390 5393 5396 5399 5403 5406 5409 5413 5416 5419 5423 5425 5428 5430 5432 5435 5438
5373 5372 5371 5371 5371 5371 5370 5370 5369 5369 5369 5369 5368 5368 5367 5365 5365 5363 5362 5362 5362 5363 5364 5367 5371 5373 5376 5378 5381 5385 5389 5392 5396 5399 5403 5406 5409 5412 5414 5416 5418 5420 5424
5362 5361 5360 5360 5359 5359 5358 5358 5357 5358 5357 5357 5357 5356 5355 5354 5353 5352 5351 5350 5350 5350 5351 5353 5356 5359 5362 5364 5366 5370 5376 5379 5383 5386 5390 5393 5396 5398 5400 5403 5406 5408 5411
5351 5349 5348 5348 5347 5347 5347 5346 5347 5347 5346 5345 5345 5345 5344 5343 5343 5342 5342 5341 5340 5339 5340 5341 5344 5346 5348 5350 5352 5355 5360 5366 5370 5373 5377 5381 5383 5387 5388 5390 5392 5395 5398
5339 5337 5336 5336 5335 5335 5336 5338 5337 5336 5335 5335 5334 5334 5332 5332 5331 5331 5331 5330 5329 5329 5329 5329 5332 5333 5335 5336 5338 5341 5345 5351 5358 5362 5363 5368 5371 5375 5377 5379 5382 5385 5388
5327 5325 5324 5323 5323 5323 5325 5327 5327 5326 5324 5324 5323 5322 5321 5321 5320 5319 5318 5318 5317 5317 5318 5318 5319 5321 5322 5324 5326 5329 5332 5336 5342 5347 5348 5356 5360 5363 5367 5370 5372 5375 5377
5315 5313 5312 5311 5311 5311 5314 5315 5316 5314 5313 5312 5311 5310 5310 5309 5308 5308 5308 5307 5306 5306 5306 5307 5308 5310 5311 5312 5313 5316 5319 5324 5330 5333 5334 5341 5347 5351 5356 5360 5363 5365 5367
5304 5302 5300 5300 5299 5299 5302 5304 5305 5303 5302 5301 5300 5300 5299 5298 5298 5299 5298 5298 5298 5297 5297 5297 5298 5299 5300 5302 5303 5304 5307 5310 5317 5322 5323 5327 5334 5338 5345 5350 5353 5355 5358
5293 5291 5290 5288 5288 5288 5290 5292 5292 5291 5291 5291 5290 5289 5289 5288 5288 5288 5287 5286 5286 5287 5287 5287 5287 5288 5289 5290 5291 5292 5294 5297 5303 5308 5312 5313 5318 5321 5331 5339 5342 5344 5347